Weather in Skegness

United Kingdom     53°08′50″N   0°20′17″E
temp.,
°C
wind,
m/s
gust,
m/s
humid.,
%
clouds,
%
prec.,
mm/h
press.,
hPa
HPBL,
m
11 april, sun
sun1101:00+2n457611 0.0 1016172
04:000nnw47795 0.0 1016225
07:00−1nw49885 0.0 1017249
10:00+6nnw786552 0.1 10181125
13:00+6n886392 0.9 10191443
16:00+6n8857100 0.3 10201418
19:00+4n4662100 0.3 1021330
22:00+1w5689100 0.1 1024165
12 april, mon
mon1201:000w5896100 0.1 1024212
04:000w349840 0.0 1025143
07:00−2wnw34958 0.0 102698
10:00+5nw34594 0.0 1027822
13:00+7nne335558 0.4 10281342
16:00+6ne235991 0.8 10291069
19:00+4ene23719 0.9 1030104
22:00+1sse11768 0.0 103136
13 april, tue
tue1301:00+1sw33845 0.0 103245
04:00−1sw33905 0.0 103252
07:000wsw23845 0.0 103357
10:00+7wnw125828 0.0 1033556
13:00+9se124788 0.0 10331715
16:00+9se1253100 0.0 10321279
19:00+6ese346913 0.1 103286
22:00+3se22785 0.0 103314
14 april, wed
wed1401:00+2se00805 0.0 103310
04:00+2nne11815 0.0 103316
07:00+3nne22785 0.0 103451
10:00+7ne34563 0.0 1035829
13:00+8ene44510 0.0 10351087
16:00+7ne44530 0.0 1034928
19:00+5ne35690 0.0 1034228
22:00+2ne33753 0.0 103597
15 april, thu
thu1501:00+2nne33785 0.0 103595
04:00+1n33846 0.0 1035109
07:00+3nne46818 0.1 1035213
10:00+6nne676736 0.1 10361217
13:00+8ene66645 0.3 10351353
16:00+7e66655 0.1 10351171
19:00+5e577310 0.1 1035558
22:00+4ene478292 0.0 1036199